TimeMST,TemperatureF,Dew PointF,Humidity,Sea Level PressureIn,VisibilityMPH,Wind Direction,Wind SpeedMPH,Gust SpeedMPH,PrecipitationIn,Events,Conditions,WindDirDegrees,DateUTC
12:15 AM,15.8,4.5,61,29.91,10.0,SW,11.5,-,N/A,,Clear,230,2013-02-26 07:15:00
12:35 AM,19.9,6.8,57,29.91,10.0,WSW,9.2,-,N/A,,Clear,250,2013-02-26 07:35:00
12:55 AM,20.3,7.7,58,29.91,10.0,West,11.5,-,N/A,,Clear,260,2013-02-26 07:55:00
1:15 AM,23.0,8.4,54,29.90,10.0,WSW,15.0,-,N/A,,Clear,240,2013-02-26 08:15:00
1:35 AM,21.0,8.2,58,29.90,10.0,WSW,13.8,-,N/A,,Clear,240,2013-02-26 08:35:00
1:55 AM,18.9,6.8,59,29.90,10.0,SW,10.4,-,N/A,,Clear,230,2013-02-26 08:55:00
2:15 AM,17.1,6.1,62,29.88,10.0,SW,9.2,-,N/A,,Clear,220,2013-02-26 09:15:00
2:35 AM,16.9,7.2,66,29.88,10.0,WSW,9.2,-,N/A,,Clear,250,2013-02-26 09:35:00
2:55 AM,19.8,6.1,55,29.88,10.0,NW,3.5,-,N/A,,Clear,310,2013-02-26 09:55:00
3:15 AM,10.9,2.5,69,29.88,10.0,NW,3.5,-,N/A,,Clear,320,2013-02-26 10:15:00
3:35 AM,7.7,0.7,73,29.88,10.0,WNW,4.6,-,N/A,,Clear,300,2013-02-26 10:35:00
3:55 AM,6.4,-0.6,73,29.88,10.0,NNW,4.6,-,N/A,,Clear,340,2013-02-26 10:55:00
4:15 AM,6.1,-0.6,74,29.88,10.0,WNW,4.6,-,N/A,,Clear,300,2013-02-26 11:15:00
4:35 AM,12.9,4.5,69,29.88,10.0,NW,4.6,-,N/A,,Clear,320,2013-02-26 11:35:00
4:55 AM,14.2,4.5,65,29.88,10.0,NW,4.6,-,N/A,,Clear,320,2013-02-26 11:55:00
5:15 AM,9.1,2.5,74,29.87,10.0,WNW,10.4,-,N/A,,Clear,290,2013-02-26 12:15:00
5:35 AM,23.9,11.1,58,29.88,10.0,WNW,11.5,-,N/A,,Clear,300,2013-02-26 12:35:00
5:55 AM,25.5,11.3,55,29.88,10.0,WNW,10.4,-,N/A,,Clear,290,2013-02-26 12:55:00
6:15 AM,25.5,10.9,54,29.88,10.0,West,9.2,-,N/A,,Clear,280,2013-02-26 13:15:00
6:35 AM,22.6,9.0,56,29.87,10.0,WNW,9.2,-,N/A,,Clear,300,2013-02-26 13:35:00
6:55 AM,18.5,7.2,61,29.86,10.0,NW,6.9,-,N/A,,Clear,320,2013-02-26 13:55:00
7:15 AM,18.7,8.6,65,29.87,10.0,NNW,4.6,-,N/A,,Clear,330,2013-02-26 14:15:00
7:35 AM,16.9,7.9,68,29.88,10.0,South,5.8,-,N/A,,Clear,190,2013-02-26 14:35:00
7:55 AM,19.9,8.6,61,29.88,10.0,SSW,3.5,-,N/A,,Clear,210,2013-02-26 14:55:00
8:15 AM,15.3,7.3,71,29.87,10.0,SSW,4.6,-,N/A,,Clear,200,2013-02-26 15:15:00
8:35 AM,14.9,7.0,71,29.87,10.0,South,4.6,-,N/A,,Clear,180,2013-02-26 15:35:00
8:55 AM,17.2,8.4,68,29.87,10.0,Calm,Calm,-,N/A,,Clear,0,2013-02-26 15:55:00
9:15 AM,22.8,11.7,62,29.86,10.0,Calm,Calm,-,N/A,,Clear,0,2013-02-26 16:15:00
9:35 AM,24.1,13.3,63,29.86,10.0,South,3.5,-,N/A,,Clear,180,2013-02-26 16:35:00
9:55 AM,28.6,16.5,61,29.85,10.0,South,3.5,-,N/A,,Clear,190,2013-02-26 16:55:00
10:15 AM,28.0,16.2,61,29.85,10.0,Calm,Calm,-,N/A,,Clear,0,2013-02-26 17:15:00
10:35 AM,31.1,16.3,54,29.85,10.0,Calm,Calm,-,N/A,,Clear,0,2013-02-26 17:35:00
10:55 AM,33.4,17.1,51,29.86,10.0,Calm,Calm,-,N/A,,Clear,0,2013-02-26 17:55:00
11:15 AM,38.1,15.3,39,29.84,10.0,West,13.8,18.4,N/A,,Clear,280,2013-02-26 18:15:00
11:35 AM,39.9,13.3,34,29.84,10.0,West,18.4,25.3,N/A,,Clear,280,2013-02-26 18:35:00
11:55 AM,40.1,14.2,35,29.84,10.0,WNW,23.0,27.6,N/A,,Clear,290,2013-02-26 18:55:00
12:15 PM,40.3,14.9,36,29.82,10.0,WNW,24.2,28.8,N/A,,Scattered Clouds,290,2013-02-26 19:15:00
12:35 PM,41.0,13.8,33,29.81,10.0,WNW,19.6,31.1,N/A,,Scattered Clouds,290,2013-02-26 19:35:00
12:55 PM,41.0,13.5,33,29.79,10.0,West,23.0,28.8,N/A,,Scattered Clouds,280,2013-02-26 19:55:00
1:15 PM,42.1,13.1,31,29.79,10.0,WNW,23.0,29.9,N/A,,Scattered Clouds,300,2013-02-26 20:15:00
1:35 PM,40.3,14.5,35,29.79,10.0,WNW,26.5,35.7,N/A,,Scattered Clouds,300,2013-02-26 20:35:00
1:55 PM,38.1,17.6,44,29.79,10.0,NW,24.2,31.1,N/A,,Scattered Clouds,310,2013-02-26 20:55:00
2:15 PM,39.0,15.8,39,29.80,10.0,NW,31.1,39.1,N/A,,Scattered Clouds,310,2013-02-26 21:15:00
2:35 PM,37.9,13.8,37,29.81,10.0,NW,28.8,34.5,N/A,,Clear,310,2013-02-26 21:35:00
2:55 PM,37.0,12.2,36,29.82,10.0,WNW,25.3,34.5,N/A,,Clear,300,2013-02-26 21:55:00
3:15 PM,35.8,13.1,39,29.83,10.0,NW,27.6,34.5,N/A,,Scattered Clouds,310,2013-02-26 22:15:00
3:35 PM,36.5,12.2,37,29.84,10.0,NW,27.6,34.5,N/A,,Clear,310,2013-02-26 22:35:00
3:55 PM,36.1,9.3,33,29.84,10.0,WNW,24.2,38.0,N/A,,Clear,300,2013-02-26 22:55:00
4:15 PM,35.8,9.9,34,29.85,10.0,NW,26.5,33.4,N/A,,Clear,310,2013-02-26 23:15:00
4:35 PM,34.9,10.8,37,29.86,10.0,NW,25.3,28.8,N/A,,Mostly Cloudy,310,2013-02-26 23:35:00
4:55 PM,33.4,10.0,38,29.87,10.0,NNW,21.9,35.7,N/A,,Scattered Clouds,330,2013-02-26 23:55:00
5:15 PM,32.9,8.1,35,29.88,10.0,NW,29.9,35.7,N/A,,Clear,310,2013-02-27 00:15:00
5:35 PM,31.6,8.6,38,29.88,10.0,NW,25.3,32.2,N/A,,Clear,320,2013-02-27 00:35:00
5:55 PM,30.2,7.3,38,29.89,10.0,NW,21.9,26.5,N/A,,Clear,310,2013-02-27 00:55:00
6:15 PM,30.2,5.5,35,29.90,10.0,NW,20.7,27.6,N/A,,Clear,310,2013-02-27 01:15:00
6:35 PM,28.0,7.7,42,29.92,10.0,NW,18.4,-,N/A,,Clear,320,2013-02-27 01:35:00
6:55 PM,28.4,8.1,42,29.93,10.0,NW,19.6,26.5,N/A,,Clear,320,2013-02-27 01:55:00
7:15 PM,29.1,5.4,37,29.94,10.0,NW,27.6,34.5,N/A,,Clear,310,2013-02-27 02:15:00
7:35 PM,28.8,7.2,40,29.96,10.0,WNW,25.3,31.1,N/A,,Clear,300,2013-02-27 02:35:00
7:55 PM,28.2,8.2,43,29.96,10.0,WNW,25.3,32.2,N/A,,Clear,300,2013-02-27 02:55:00
8:15 PM,28.4,7.5,41,29.96,10.0,WNW,23.0,31.1,N/A,,Clear,300,2013-02-27 03:15:00
8:35 PM,28.2,6.8,40,29.97,10.0,WNW,23.0,34.5,N/A,,Clear,300,2013-02-27 03:35:00
8:55 PM,28.0,6.3,40,29.98,10.0,WNW,21.9,28.8,N/A,,Clear,300,2013-02-27 03:55:00
9:15 PM,27.3,6.6,42,29.99,10.0,WNW,21.9,26.5,N/A,,Clear,300,2013-02-27 04:15:00
9:55 PM,26.6,7.7,45,30.00,10.0,NW,19.6,-,N/A,,Clear,310,2013-02-27 04:55:00
10:15 PM,25.7,8.6,48,30.00,10.0,NW,17.3,-,N/A,,Clear,310,2013-02-27 05:15:00
10:35 PM,25.3,8.8,50,30.01,10.0,NW,17.3,-,N/A,,Clear,310,2013-02-27 05:35:00
10:55 PM,25.2,9.3,51,30.02,10.0,NW,16.1,-,N/A,,Clear,310,2013-02-27 05:55:00
11:15 PM,24.1,10.0,55,30.03,10.0,NW,11.5,-,N/A,,Clear,310,2013-02-27 06:15:00
11:35 PM,23.5,9.9,56,30.04,10.0,NW,9.2,-,N/A,,Clear,320,2013-02-27 06:35:00
11:55 PM,21.7,9.3,59,30.05,10.0,NNW,5.8,-,N/A,,Clear,330,2013-02-27 06:55:00